Regional Weather Roundup
Issued by NWS Goodland, KS

Home | Current Version | Previous Version | Text Only | Print | Product List | Glossary On
Versions: 1 2 3 4 5 6 7 8 9 10 11 12 13 14 15 16 17 18 19 20 21 22 23 24 25 26 27 28 29 30 31 32 33 34 35 36 37 38 39 40 41 42 43 44 45 46 47 48 49 50
000
ASUS43 KGLD 010108
RWRGLD

GOODLAND FORECAST AREA HOURLY WEATHER ROUNDUP
NATIONAL WEATHER SERVICE GOODLAND KS
600 PM MST SAT FEB 28 2015

...OFFICIAL OBSERVATIONS...

CITY           SKY/WX    TMP DP  RH WIND       PRES   REMARKS
GOODLAND KS    CLOUDY    18  12  77 SE6       30.09R
HILL CITY KS   CLOUDY    20  13  74 SE7       30.23R
IMPERIAL NEB     N/A     20   9  62 S5        30.11R
MCCOOK NEB     CLOUDY    25  12  58 S3        30.16S
AKRON CO       CLOUDY    21  14  74 E6        30.00S
BURLINGTON CO  CLOUDY    18  11  74 SW7       30.05R
LIMON CO       CLOUDY    14   9  80 CALM      29.97R
$$

...UNOFFICIAL OBSERVATIONS...

CITY           SKY/WX    TMP DP  RH WIND       PRES   REMARKS
COLBY KS       FLURRIES  21  18  86 S5        30.14R
GOVE KS          N/A     21  32 100 MISG        N/A
LENORA KS        N/A     19  32 100 S8          N/A
NORTON KS      CLOUDY    19  12  73 SE3       30.20S
SHARON SPRINGS   N/A     19  15  85 CALM        N/A
KIT CARSON CO    N/A     18  13  80 MISG        N/A
YUMA CO          N/A     21  13  71 E5          N/A
$$



USA.gov is the U.S. government's official web portal to all federal, state and local government web resources and services.